This is the latest recevied weather packets stored in our database for station/object KC3ULW-13. If no packets are shown the sender has not sent any weather packets the latest 10 day(s).
| Time | Temp. | Humidity | Pressure | Rain* | Wind** | Luminosity | Snow |
|---|---|---|---|---|---|---|---|
| 1777754138 | 7.22° C | 66% | 1018 hPa | 0 mm | - | 125 W/m² | - |
| 1777753836 | 7.78° C | 65% | 1017.7 hPa | 0 mm | - | 157 W/m² | - |
| 1777753531 | 7.22° C | 64% | 1018 hPa | 0 mm | - | 197 W/m² | - |
| 1777753230 | 7.78° C | 64% | 1017.8 hPa | 0 mm | - | 229 W/m² | - |
| 1777752926 | 7.78° C | 66% | 1017.8 hPa | 0 mm | - | 266 W/m² | - |
| 1777752622 | 7.78° C | 66% | 1017.7 hPa | 0 mm | - | 283 W/m² | - |
| 1777752318 | 7.78° C | 66% | 1017.9 hPa | 0 mm | - | 259 W/m² | - |
| 1777752017 | 7.78° C | 67% | 1018 hPa | 0 mm | - | 331 W/m² | - |
| 1777751714 | 7.22° C | 69% | 1017.7 hPa | 0 mm | - | 308 W/m² | - |
| 1777751409 | 6.67° C | 70% | 1017.8 hPa | 0 mm | - | 159 W/m² | - |
| 1777751107 | 6.67° C | 71% | 1018 hPa | 0 mm | - | 124 W/m² | - |
| 1777750802 | 6.67° C | 71% | 1018 hPa | 0 mm | - | 110 W/m² | - |
| 1777750500 | 6.67° C | 71% | 1018 hPa | 0 mm | - | 112 W/m² | - |
| 1777750195 | 6.67° C | 70% | 1018.1 hPa | 0 mm | - | 86 W/m² | - |
| 1777749892 | 6.67° C | 71% | 1018.1 hPa | 0 mm | - | 82 W/m² | - |
| 1777749589 | 6.67° C | 71% | 1018.2 hPa | 0 mm | - | 55 W/m² | - |
| 1777749287 | 6.67° C | 70% | 1018.1 hPa | 0 mm | - | 90 W/m² | - |
| 1777748984 | 7.22° C | 69% | 1018.3 hPa | 0 mm | - | 100 W/m² | - |
| 1777748681 | 7.22° C | 69% | 1018.1 hPa | 0 mm | - | 145 W/m² | - |
| 1777748378 | 7.22° C | 69% | 1018.3 hPa | 0 mm | - | 199 W/m² | - |
| 1777748073 | 7.22° C | 67% | 1018.4 hPa | 0 mm | - | 180 W/m² | - |
| 1777747771 | 7.22° C | 68% | 1018.3 hPa | 0 mm | - | 188 W/m² | - |
| 1777747466 | 7.78° C | 67% | 1018.4 hPa | 0 mm | - | 181 W/m² | - |
| 1777747162 | 7.78° C | 67% | 1018.2 hPa | 0 mm | - | 220 W/m² | - |
| 1777746859 | 7.78° C | 68% | 1018.4 hPa | 0 mm | - | 272 W/m² | - |
* Rain latest hour (hover to see other rain measurements)
** Current wind speed in m/s (hover to see current wind gust speed)